This demonstration page uses our WeatherBlox Daily Observations layout. Learn more.

Left ArrowRight Arrow

38.89511, -77.03637

Hourly Observations for March 21, 2021

Temp ( °F °C ) Dew Point ( °F °C ) Humidity (%) Winds ( mph kmh ) Pressure ( in mb ) Visibility ( mi km ) Precip ( " mm )
12:52 am 00:52 Mostly Clear 42 5.6 28 -2.2 58 58 Calm 30.54 1034 10 16.0934 0 0
1:52 am 01:52 Mostly Clear 41 5 27 -2.8 57 57 Calm 30.54 1034 10 16.0934 0 0
2:52 am 02:52 Mostly Clear 39 3.9 29 -1.7 67 67 Calm 30.53 1034 10 16.0934 0 0
3:52 am 03:52 Partly Cloudy 39 3.9 30 -1.1 70 70 Calm 30.53 1034 10 16.0934 0 0
4:52 am 04:52 Partly Cloudy 36 2.2 30 -1.1 79 79 N 5 7 30.53 1034 10 16.0934 0 0
5:52 am 05:52 Partly Cloudy 37 2.8 29 -1.7 73 73 N 5 7 30.54 1034 10 16.0934 0 0
6:52 am 06:52 Mostly Clear 36 2.2 29 -1.7 76 76 N 5 7 30.55 1035 10 16.0934 0 0
7:52 am 07:52 Mostly Sunny 37 2.8 30 -1.1 76 76 N 3 6 30.56 1035 10 16.0934 0 0
8:52 am 08:52 Sunny 43 6.1 33 0.6 68 68 NNE 3 6 30.57 1035 10 16.0934 0 0
9:52 am 09:52 Mostly Sunny 47 8.3 34 1.1 61 61 NE 3 6 30.57 1035 10 16.0934 0 0
10:52 am 10:52 Mostly Sunny 55 12.8 30 -1.1 38 38 Calm 30.57 1035 10 16.0934 0 0
11:52 am 11:52 Mostly Sunny 59 15 23 -5 25 25 NNE 5 7 30.56 1035 10 16.0934 0 0
12:52 pm 12:52 Partly Cloudy 61 16.1 21 -6.1 21 21 ENE 7 11 30.54 1034 10 16.0934 0 0
1:52 pm 13:52 Partly Cloudy 62 16.7 21 -6.1 21 21 Calm 30.52 1034 10 16.0934 0 0
2:52 pm 14:52 Mostly Sunny 63 17.2 21 -6.1 20 20 ESE 6 9 30.49 1033 10 16.0934 0 0
3:52 pm 15:52 Mostly Sunny 63 17.2 22 -5.6 21 21 E 10 17 30.47 1032 10 16.0934 0 0
4:52 pm 16:52 Mostly Sunny 63 17.2 19 -7.2 18 18 E 7 11 30.46 1031 10 16.0934 0 0
5:52 pm 17:52 Mostly Sunny 61 16.1 25 -3.9 25 25 E 8 13 30.45 1031 10 16.0934 0 0
6:52 pm 18:52 Mostly Sunny 58 14.4 27 -2.8 31 31 ESE 9 15 30.46 1031 10 16.0934 0 0
7:52 pm 19:52 Mostly Clear 56 13.3 30 -1.1 37 37 ESE 6 9 30.46 1031 10 16.0934 0 0
8:52 pm 20:52 Clear 54 12.2 32 0 43 43 E 5 7 30.46 1031 10 16.0934 0 0
9:52 pm 21:52 Clear 52 11.1 34 1.1 50 50 ESE 6 9 30.45 1031 10 16.0934 0 0
10:52 pm 22:52 Clear 50 10 30 -1.1 46 46 ESE 6 9 30.45 1031 10 16.0934 0 0
11:52 pm 23:52 Clear 49 9.4 28 -2.2 44 44 ESE 8 13 30.45 1031 10 16.0934 0 0

Powered by AerisWeather